Powrót do katalogu

THOR ABLESTAR DEB

AktywnyLEO
NORAD 210·DEBRIS·🇺🇸 United States

Wystrzelony Jun 29, 1961 z Cape Canaveral Space Force Station

Loading…

Następne Przeloty (najbliższe 24 godziny)

TLE

ŚwieżeSource: Space-Track

Epoka: Sep 10, 2026, 10:48 UTC

1   210U 61015BE  26253.45007007  .00000312  00000-0  31805-3 0  9993
2   210  66.4567 155.0636 0053381 260.9528  98.5503 13.89157297277241

Śledź THOR ABLESTAR DEB w czasie rzeczywistym z AllMySat

Download on the App Store